Regional Weather Roundup
Issued by NWS State College, PA

Home | Current Version | Previous Version | Graphics & Text | Print | Product List | Glossary On
Versions: 1 2 3 4 5 6 7 8 9 10 11 12 13 14 15 16 17 18 19 20 21 22 23 24 25 26 27 28 29 30 31 32 33 34 35 36 37 38 39 40 41 42 43 44 45 46 47 48 49 50
000
ASUS41 KCTP 261003
RWRCTP

REGIONAL WEATHER ROUNDUP
NATIONAL WEATHER SERVICE STATE COLLEGE PA
500 AM EST SUN FEB 26 2017

Note: "fair" indicates few or no clouds below 12,000 feet with no
significant weather and/or obstructions to visibility.

* = STATION THAT DOES NOT REPORT PRECIPITATION /E.G. RAIN...SNOW...ETC/
    THUNDER OR FOG.

PAZ002>004-007>009-013>016-020>023-029>032-261100-
WESTERN PENNSYLVANIA

CITY           SKY/WX    TMP DP  RH WIND       PRES   REMARKS
ERIE           CLOUDY    28  15  58 W15G22    29.99R
MEADVILLE      FLURRIES  22  16  78 W10       29.96R WCI  11
FRANKLIN*      CLOUDY    23  16  74 W10       29.97R WCI  12
NEW CASTLE     CLOUDY    25  20  81 W8        30.02R
BEAVER COUNTY  NOT AVBL
BUTLER*        CLOUDY    27  16  63 W10G17    30.00R
PITTSBURGH INT FLURRIES  27  20  75 SW6       30.00R
PITTSBURGH     FLURRIES  26  17  68 W10       30.00R
INDIANA*       CLOUDY    25  19  80 W10G21    30.01R HAZE    WCI  15
LATROBE        FLURRIES  27  16  63 SW10      30.02R
WASHINGTON CO* CLOUDY    27  16  63 W8        30.04R
$$

PAZ004>006-010>012-017>019-024>028-033>037-041-042-045-046-049>053-261100-
CENTRAL PENNSYLVANIA

CITY           SKY/WX    TMP DP  RH WIND       PRES   REMARKS
BRADFORD       LGT SNOW  21  18  88 W12       29.86R FOG     WCI   9
DUBOIS         CLOUDY    23  13  65 W14G24    29.91R WCI  11
CLEARFIELD       N/A    N/A N/A N/A MISG      29.93R
JOHNSTOWN      LGT SNOW  22  17  81 W13G21    29.90R WCI  10
ALTOONA        CLOUDY    28  16  60 NW14G26   29.95R
STATE COLLEGE  FLURRIES  27  17  64 W14G23    29.93R
WILLIAMSPORT   CLOUDY    33  15  47 NW18G24   29.91R
SELINSGROVE    CLOUDY    32  19  58 W9G18     29.94R
FT INDIANTOWN  CLOUDY    33  19  55 W12G22    29.92R
CAPITAL CITY   MOCLDY    35  14  42 NW21G26   29.95R
HARRISBURG     MOCLDY    34  19  54 NW24G32   29.95R
YORK           CLOUDY    32  19  58 NW12      29.95R
$$

PAZ038>040-043-044-047-048-054-055-060>062-067>071-261100-
EASTERN PENNSYLVANIA

CITY           SKY/WX    TMP DP  RH WIND       PRES   REMARKS
SCRANTON       CLOUDY    32  19  58 W12       29.84R
MOUNT POCONO   CLOUDY    26  16  65 NW20G29   29.75R WCI  12
ALLENTOWN      CLOUDY    36  19  50 W14G22    29.86R
QUAKERTOWN*    CLOUDY    34  19  55 NW8G23    29.87R
READING        CLOUDY    35  20  54 W22G28    29.90R
LANCASTER      CLOUDY    34  20  56 W20       29.93R
COATESVILLE    CLOUDY    34  19  55 W17G24    29.91R
POTTSTOWN      CLOUDY    34  18  52 NW16G22   29.90R
BLUE BELL      PTCLDY    34  19  55 NW9G20    29.88R
DOYLESTOWN     PTCLDY    34  21  59 NW10      29.87R
WILLOW GROVE   NOT AVBL
NORTH PHILA    CLEAR     37  19  48 W15       29.90R
PHILADELPHIA   MOCLDY    39  21  48 W12G21    29.91R
$$




USA.gov is the U.S. government's official web portal to all federal, state and local government web resources and services.